Terug naar catalogus

COSMOS 2069

ActiefMilitairLEO
NORAD 20554·PAYLOAD·🇷🇺 Russia

Gelanceerd Apr 6, 1990 vanaf Plesetsk Cosmodrome

Loading…

Volgende Passages (komende 24 uur)

TLE

VersSource: Space-Track

Epoch: Sep 14, 2026, 06:26 UTC

1 20554U 90029F   26257.26874870 -.00000007  00000-0  56841-4 0  9996
2 20554  73.9858   3.5410 0021444 144.9980 242.9963 12.54543122668869

Volg COSMOS 2069 in realtime met AllMySat

Download on the App Store